TimeCDT,TemperatureF,Dew PointF,Humidity,Sea Level PressureIn,VisibilityMPH,Wind Direction,Wind SpeedMPH,Gust SpeedMPH,PrecipitationIn,Events,Conditions,WindDirDegrees,DateUTC
12:15 AM,37.4,33.8,87,29.83,4.0,South,10.4,-,N/A,,Overcast,190,2013-03-10 06:15:00
12:35 AM,35.6,33.8,93,29.82,3.0,South,8.1,-,N/A,,Overcast,190,2013-03-10 06:35:00
12:55 AM,35.6,33.8,93,29.81,2.5,South,8.1,-,N/A,,Overcast,190,2013-03-10 06:55:00
1:15 AM,35.6,33.8,93,29.81,2.5,SSW,6.9,-,N/A,,Overcast,200,2013-03-10 07:15:00
1:35 AM,35.6,33.8,93,29.81,2.0,SSW,4.6,-,N/A,,Overcast,210,2013-03-10 07:35:00
1:55 AM,35.6,33.8,93,29.80,2.0,SSW,5.8,-,N/A,,Overcast,210,2013-03-10 07:55:00
3:15 AM,35.6,33.8,93,29.80,1.5,SW,3.5,-,N/A,,Overcast,220,2013-03-10 08:15:00
3:35 AM,35.6,33.8,93,29.79,1.8,South,4.6,-,N/A,,Overcast,190,2013-03-10 08:35:00
3:55 AM,35.6,35.6,100,29.79,1.5,Calm,Calm,-,N/A,,Overcast,0,2013-03-10 08:55:00
4:15 AM,35.6,33.8,93,29.78,1.8,SSW,3.5,-,N/A,,Overcast,200,2013-03-10 09:15:00
4:35 AM,33.8,33.8,100,29.79,2.0,South,5.8,-,N/A,,Overcast,190,2013-03-10 09:35:00
4:55 AM,35.6,35.6,100,29.79,2.0,SSW,3.5,-,N/A,,Overcast,210,2013-03-10 09:55:00
5:15 AM,35.6,35.6,100,29.79,1.8,SW,3.5,-,N/A,,Overcast,220,2013-03-10 10:15:00
5:35 AM,35.6,35.6,100,29.78,1.8,Calm,Calm,-,N/A,,Overcast,0,2013-03-10 10:35:00
5:55 AM,35.6,35.6,100,29.79,1.8,SSW,3.5,-,N/A,,Overcast,200,2013-03-10 10:55:00
6:15 AM,33.8,33.8,100,29.79,1.0,Calm,Calm,-,N/A,,Overcast,0,2013-03-10 11:15:00
7:35 AM,33.8,33.8,100,29.78,0.2,ESE,4.6,-,N/A,,Overcast,120,2013-03-10 12:35:00
7:55 AM,33.8,33.8,100,29.78,0.2,East,4.6,-,N/A,,Overcast,100,2013-03-10 12:55:00
8:15 AM,33.8,33.8,100,29.77,0.2,ENE,5.8,-,N/A,,Overcast,60,2013-03-10 13:15:00
8:35 AM,33.8,33.8,100,29.80,0.2,Calm,Calm,-,N/A,,Overcast,0,2013-03-10 13:35:00
8:55 AM,33.8,33.8,100,29.80,0.2,Calm,Calm,-,N/A,,Overcast,0,2013-03-10 13:55:00
9:15 AM,35.6,35.6,100,29.81,0.2,Calm,Calm,-,N/A,,Overcast,0,2013-03-10 14:15:00
9:35 AM,35.6,33.8,93,29.81,0.2,Calm,Calm,-,N/A,,Overcast,0,2013-03-10 14:35:00
9:55 AM,35.6,35.6,100,29.83,0.2,Calm,Calm,-,N/A,,Overcast,0,2013-03-10 14:55:00
10:15 AM,35.6,33.8,93,29.86,0.2,WNW,3.5,-,N/A,,Overcast,290,2013-03-10 15:15:00
10:35 AM,35.6,35.6,100,29.85,0.5,North,5.8,-,N/A,,Overcast,360,2013-03-10 15:35:00
10:55 AM,33.8,33.8,100,29.86,1.2,NNW,8.1,-,0.01,,Overcast,340,2013-03-10 15:55:00
11:15 AM,35.6,33.8,93,29.86,1.5,North,4.6,-,0.01,,Overcast,10,2013-03-10 16:15:00
11:35 AM,35.6,35.6,100,29.85,3.0,NNE,5.8,-,0.01,,Mostly Cloudy,20,2013-03-10 16:35:00
11:55 AM,37.4,35.6,93,29.86,3.0,North,5.8,-,0.01,,Overcast,360,2013-03-10 16:55:00
12:15 PM,35.6,33.8,93,29.87,4.0,NNE,6.9,-,N/A,,Overcast,20,2013-03-10 17:15:00
12:35 PM,37.4,35.6,93,29.87,9.0,North,8.1,-,N/A,,Overcast,360,2013-03-10 17:35:00
12:55 PM,37.4,35.6,93,29.87,10.0,North,10.4,-,N/A,,Overcast,10,2013-03-10 17:55:00
1:15 PM,37.4,35.6,93,29.85,10.0,North,10.4,-,N/A,,Overcast,10,2013-03-10 18:15:00
1:35 PM,37.4,35.6,93,29.84,10.0,NNE,10.4,16.1,N/A,,Overcast,30,2013-03-10 18:35:00
1:55 PM,37.4,35.6,93,29.84,10.0,NNE,15.0,-,N/A,,Overcast,20,2013-03-10 18:55:00
2:15 PM,37.4,35.6,93,29.87,10.0,NNE,11.5,16.1,N/A,,Overcast,30,2013-03-10 19:15:00
2:35 PM,37.4,33.8,87,29.88,10.0,NNE,11.5,-,N/A,,Overcast,30,2013-03-10 19:35:00
2:55 PM,37.4,33.8,87,29.88,10.0,NNE,9.2,-,N/A,,Overcast,30,2013-03-10 19:55:00
3:15 PM,37.4,33.8,87,29.86,10.0,NNE,10.4,-,N/A,,Overcast,30,2013-03-10 20:15:00
3:35 PM,37.4,33.8,87,29.86,10.0,NE,10.4,-,N/A,,Overcast,40,2013-03-10 20:35:00
3:55 PM,37.4,33.8,87,29.85,10.0,NE,12.7,-,N/A,,Overcast,50,2013-03-10 20:55:00
4:15 PM,35.6,33.8,93,29.86,10.0,ENE,12.7,-,N/A,,Overcast,70,2013-03-10 21:15:00
4:35 PM,35.6,32.0,87,29.87,10.0,ENE,15.0,-,N/A,,Overcast,70,2013-03-10 21:35:00
4:55 PM,35.6,32.0,87,29.86,10.0,ENE,17.3,-,N/A,,Overcast,70,2013-03-10 21:55:00
5:15 PM,35.6,30.2,81,29.86,10.0,ENE,19.6,24.2,N/A,,Overcast,70,2013-03-10 22:15:00
5:35 PM,35.6,30.2,81,29.86,10.0,ENE,16.1,-,N/A,,Overcast,60,2013-03-10 22:35:00
5:55 PM,33.8,30.2,87,29.87,10.0,ENE,9.2,-,N/A,,Overcast,70,2013-03-10 22:55:00
6:15 PM,33.8,30.2,87,29.88,8.0,ENE,11.5,-,N/A,,Overcast,70,2013-03-10 23:15:00
6:35 PM,33.8,30.2,87,29.88,5.0,NE,11.5,-,N/A,,Overcast,50,2013-03-10 23:35:00
6:55 PM,35.6,30.2,81,29.88,5.0,NE,12.7,17.3,N/A,,Overcast,50,2013-03-10 23:55:00
7:15 PM,33.8,30.2,87,29.88,7.0,ENE,13.8,-,0.01,,Overcast,60,2013-03-11 00:15:00
7:35 PM,33.8,30.2,87,29.88,8.0,NE,13.8,17.3,0.01,,Overcast,50,2013-03-11 00:35:00
7:55 PM,33.8,32.0,93,29.89,8.0,NE,11.5,-,0.01,,Overcast,50,2013-03-11 00:55:00
8:15 PM,30.2,30.2,100,29.87,5.0,NE,16.1,20.7,N/A,,Overcast,40,2013-03-11 01:15:00
8:35 PM,32.0,30.2,93,29.86,4.0,NE,16.1,-,N/A,,Overcast,40,2013-03-11 01:35:00
9:15 PM,33.8,30.2,87,29.83,5.0,NE,19.6,23.0,N/A,,Overcast,40,2013-03-11 02:15:00
9:35 PM,32.0,30.2,93,29.83,10.0,NE,19.6,28.8,N/A,,Overcast,40,2013-03-11 02:35:00
9:55 PM,33.8,30.2,87,29.82,5.0,NE,17.3,28.8,N/A,,Overcast,40,2013-03-11 02:55:00
10:15 PM,33.8,32.0,93,29.79,4.0,NE,21.9,27.6,N/A,,Overcast,40,2013-03-11 03:15:00
10:35 PM,33.8,30.2,87,29.78,4.0,NE,18.4,26.5,N/A,,Overcast,40,2013-03-11 03:35:00
10:55 PM,32.0,30.2,93,29.76,5.0,NE,18.4,26.5,N/A,,Overcast,40,2013-03-11 03:55:00
11:15 PM,32.0,32.0,100,29.75,5.0,NE,21.9,31.1,N/A,,Overcast,40,2013-03-11 04:15:00
11:35 PM,33.8,32.0,93,29.73,5.0,NE,21.9,28.8,0.01,,Overcast,50,2013-03-11 04:35:00
11:55 PM,33.8,30.2,87,29.71,5.0,NE,20.7,32.2,0.02,,Overcast,50,2013-03-11 04:55:00
12:15 AM,33.8,30.2,87,29.69,5.0,NE,20.7,29.9,N/A,,Overcast,50,2013-03-11 05:15:00
12:35 AM,35.6,33.8,93,29.68,3.0,NE,18.4,32.2,N/A,,Overcast,50,2013-03-11 05:35:00
12:55 AM,33.8,33.8,100,29.67,5.0,NE,18.4,25.3,N/A,,Overcast,50,2013-03-11 05:55:00